Location: Asheville, NC
(35.6000°N, 82.5500°W)
Time: 13:57:31
(UTC-04:00)

Vanguard 2 - Pass Details

Date: 14 March 2018
Orbit: 553 x 2939 km, 32.9° (Epoch: 18 June)

Event Time Altitude Azimuth Distance (km) Brightness Sun altitude
Rises 18:49:03 0° 284° (WNW) 6,776 13.8 8.8°
Reaches altitude 10° 18:54:34 10° 275° (W) 5,641 14.0 7.7°
Maximum altitude 19:07:36 30° 224° (SW) 3,626 11.8 5.1°
Drops below altitude 10° 19:17:25 10° 169° (SSE) 4,172 11.2 3.1°
Sets 19:20:49 0° 158° (SSE) 4,825 11.4 2.4°
